Regional Weather Roundup
Issued by NWS

Home | Current Version | Previous Version | Graphics & Text | Print | Product List | Glossary On
Versions: 1 2 3 4 5 6 7 8 9 10 11 12 13 14 15 16 17 18 19 20 21 22 23 24 25 26 27 28 29 30 31 32 33 34 35 36 37 38 39 40 41 42 43 44 45 46 47 48 49 50
000
ASUS43 KFSD 272110
RWRSD

WEATHER ROUNDUP FOR SOUTH DAKOTA
NATIONAL WEATHER SERVICE SIOUX FALLS SD
400 PM CDT THU APR 27 2017

NOTE: "FAIR" INDICATES FEW OR NO CLOUDS BELOW 12,000 FEET WITH NO
SIGNIFICANT WEATHER AND/OR OBSTRUCTIONS TO VISIBILITY.


SDZ001>005-009-010-012>017-272200-
NORTHWEST AND NORTH CENTRAL SOUTH DAKOTA

CITY           SKY/WX    TMP DP  RH WIND       PRES   REMARKS
BUFFALO          N/A     50  27  40 E12G20    29.59S
FAITH            N/A     45  30  55 NE7       29.67F
MOBRIDGE       SUNNY     54  25  32 N9        29.66S
$$

SDZ012>016-024>037-041>051-057-063-072>074-272200-
SOUTHWEST AND SOUTH CENTRAL SOUTH DAKOTA

CITY           SKY/WX    TMP DP  RH WIND       PRES   REMARKS
RAPID CTY ARPT CLOUDY    48  34  58 E14       29.63S
PIERRE         SUNNY     48  29  47 N6        29.68F
CUSTER         CLOUDY    37  29  72 E10       29.58S
ELLSWORTH AFB  CLOUDY    45  34  66 E13       29.62S
PHILIP         SUNNY     47  32  56 NE9       29.66F
PINE RIDGE     CLOUDY    51  35  54 E14       29.58F
SPEARFISH      FAIR      43  36  75 E18       29.60R
WINNER         FAIR      54  33  45 E5        29.67F
$$

SDZ004>011-016>023-039-040-272200-
NORTHEAST SOUTH DAKOTA

CITY           SKY/WX    TMP DP  RH WIND       PRES   REMARKS
ABERDEEN       PTSUNNY   46  29  51 N10       29.71S
WATERTOWN      MOSUNNY   41  27  57 NW14G23   29.68R
BROOKINGS      MOSUNNY   42  29  59 NW17G24   29.67S
SISSETON         N/A     40  29  64 N18       29.68F
$$

SDZ017-020-022-023-036>040-048>070-272200-
SOUTHEAST SOUTH DAKOTA

CITY           SKY/WX    TMP DP  RH WIND       PRES   REMARKS
SIOUX FALLS    MOSUNNY   49  34  56 NW10      29.68S
HURON          SUNNY     49  31  49 N13G20    29.69F
CHAMBERLAIN    SUNNY     50  32  50 CALM      29.69S
MITCHELL       SUNNY     49  30  48 N9        29.70F
YANKTON        SUNNY     50  32  50 NW12G18   29.68F
$$

ABBREVIATIONS USED IN REMARKS
   TC - TEMPERATURE IN CELSIUS
  WCI - WIND CHILL INDEX
   HX - HEAT INDEX
  VSB - VISIBILITY




USA.gov is the U.S. government's official web portal to all federal, state and local government web resources and services.